GSAT0222 (GALILEO 26) (43565 NORAD) Tracking and Keplerian Element Data

This shows tracking and keplerian element data for the satellite.

Feedback or suggestion? Click here.




ElementValue
Catalog43565
NameGSAT0222 (GALILEO 26)
Epoch Orbit470
Epoch Day114.39775775
Epoch Year2019
RAAN52.581
Inclination56.5279
Eccentricity0.0005317
Argument of Perigee299.0244
Mean Anonmoly60.8987
Mean Motion1.70475821
Decay Rate-7.1E-07
L11 43565U 18060B 19114.39775775 -.00000071 00000-0 00000-0 0 9993
L22 43565 56.5279 52.5810 0005317 299.0244 60.8987 1.70475821 4700

Live tracking and technical data element details for GSAT0222 (GALILEO 26) (NORAD 43565). GSAT0222 (GALILEO 26) can be tracked NOW for your location showing map with azimuth and elevation plus other details from your city location.

Track the satellite on the map from your city or location and see movement details for azimuth, elevation, latitude, longitude, range, height, and movement on the map or in text.







IsCatalogInMostPopularTable: catalog: 43565, numindb: 120
Update: records affected: 1



GetName: 43565 GSAT0222 (GALILEO 26)

Hit Count: updated at: Fri, 26 Apr 2019 16:10:10 GMT